TimePDT,TemperatureF,Dew PointF,Humidity,Sea Level PressureIn,VisibilityMPH,Wind Direction,Wind SpeedMPH,Gust SpeedMPH,PrecipitationIn,Events,Conditions,WindDirDegrees,DateUTC
1:53 AM,42.1,23.0,47,29.85,10.0,Calm,Calm,-,N/A,,Clear,0,2012-10-08 08:53:00
2:53 AM,41.0,23.0,49,29.85,10.0,Calm,Calm,-,N/A,,Clear,0,2012-10-08 09:53:00
3:53 AM,39.9,25.0,55,29.85,10.0,WNW,4.6,-,N/A,,Clear,300,2012-10-08 10:53:00
4:53 AM,39.9,24.1,53,29.84,10.0,NW,4.6,-,N/A,,Clear,320,2012-10-08 11:53:00
6:53 AM,39.0,23.0,53,29.84,10.0,NW,5.8,-,N/A,,Clear,320,2012-10-08 13:53:00
7:53 AM,42.1,23.0,47,29.87,10.0,WNW,4.6,-,N/A,,Clear,300,2012-10-08 14:53:00
8:53 AM,43.0,23.0,45,29.88,10.0,Variable,5.8,-,N/A,,Clear,0,2012-10-08 15:53:00
9:53 AM,45.0,21.9,40,29.88,10.0,NW,6.9,-,N/A,,Partly Cloudy,320,2012-10-08 16:53:00
10:53 AM,46.0,24.1,42,29.83,10.0,NW,8.1,-,N/A,,Overcast,320,2012-10-08 17:53:00
11:53 AM,48.9,24.1,38,29.83,10.0,Variable,6.9,-,N/A,,Overcast,0,2012-10-08 18:53:00
12:53 PM,51.1,26.1,38,29.81,10.0,Variable,5.8,-,N/A,,Mostly Cloudy,0,2012-10-08 19:53:00
1:53 PM,48.0,25.0,41,29.82,10.0,NNW,8.1,-,N/A,,Overcast,330,2012-10-08 20:53:00
2:53 PM,50.0,26.1,39,29.80,10.0,Variable,3.5,-,N/A,,Overcast,0,2012-10-08 21:53:00
3:53 PM,48.9,26.1,41,29.81,10.0,Variable,4.6,-,N/A,,Overcast,0,2012-10-08 22:53:00
4:53 PM,48.9,26.1,41,29.81,10.0,NNW,5.8,-,N/A,,Overcast,330,2012-10-08 23:53:00
5:53 PM,46.0,26.1,46,29.86,10.0,NW,9.2,-,N/A,,Partly Cloudy,320,2012-10-09 00:53:00
6:53 PM,44.1,26.1,49,29.84,10.0,NNW,4.6,-,N/A,,Clear,330,2012-10-09 01:53:00
7:53 PM,43.0,25.0,49,29.88,10.0,NW,4.6,-,N/A,,Clear,320,2012-10-09 02:53:00
8:53 PM,44.1,25.0,47,29.85,10.0,Calm,Calm,-,N/A,,Overcast,0,2012-10-09 03:53:00
9:53 PM,43.0,25.0,49,29.85,10.0,NNW,4.6,-,N/A,,Scattered Clouds,330,2012-10-09 04:53:00
10:53 PM,42.1,24.1,49,29.86,10.0,NNW,4.6,-,N/A,,Partly Cloudy,340,2012-10-09 05:53:00
11:53 PM,42.1,21.9,45,29.85,10.0,NNW,5.8,-,N/A,,Clear,330,2012-10-09 06:53:00